TimeEDT,TemperatureF,Dew PointF,Humidity,Sea Level PressureIn,VisibilityMPH,Wind Direction,Wind SpeedMPH,Gust SpeedMPH,PrecipitationIn,Events,Conditions,WindDirDegrees,DateUTC
12:53 AM,46.0,42.1,86,29.66,10.0,South,6.9,-,0.00,,Overcast,190,2012-10-20 04:53:00
1:22 AM,46.4,42.8,87,29.67,10.0,SSW,9.2,-,N/A,,Overcast,200,2012-10-20 05:22:00
1:53 AM,46.0,42.1,86,29.67,10.0,South,9.2,-,N/A,,Overcast,190,2012-10-20 05:53:00
2:38 AM,46.4,42.8,87,29.67,10.0,SSW,11.5,-,N/A,,Overcast,200,2012-10-20 06:38:00
2:53 AM,46.0,42.1,86,29.67,10.0,SSW,10.4,-,N/A,,Overcast,200,2012-10-20 06:53:00
3:53 AM,45.0,42.1,90,29.68,10.0,South,6.9,-,N/A,,Overcast,180,2012-10-20 07:53:00
4:50 AM,44.6,42.8,93,29.68,10.0,South,9.2,-,N/A,,Mostly Cloudy,190,2012-10-20 08:50:00
4:53 AM,46.0,42.1,86,29.68,10.0,South,9.2,-,N/A,,Overcast,190,2012-10-20 08:53:00
6:33 AM,46.4,42.8,87,29.68,10.0,South,9.2,-,N/A,,Overcast,190,2012-10-20 10:33:00
6:53 AM,46.0,42.1,86,29.68,10.0,SSW,9.2,-,N/A,,Overcast,200,2012-10-20 10:53:00
7:35 AM,46.4,42.8,87,29.68,10.0,SSW,8.1,-,N/A,,Overcast,200,2012-10-20 11:35:00
7:53 AM,46.0,42.1,86,29.69,10.0,SSW,10.4,-,0.00,Rain,Light Rain,200,2012-10-20 11:53:00
8:37 AM,46.4,42.8,87,29.70,10.0,South,8.1,-,0.00,,Overcast,190,2012-10-20 12:37:00
8:53 AM,46.9,42.1,83,29.70,10.0,SSW,13.8,-,0.00,,Mostly Cloudy,200,2012-10-20 12:53:00
9:18 AM,46.4,42.8,87,29.70,10.0,SSW,12.7,18.4,N/A,,Overcast,210,2012-10-20 13:18:00
9:31 AM,46.4,42.8,87,29.70,10.0,SW,11.5,-,N/A,,Overcast,220,2012-10-20 13:31:00
9:53 AM,48.0,42.1,80,29.71,10.0,SSW,13.8,-,N/A,,Overcast,210,2012-10-20 13:53:00
10:13 AM,48.2,42.8,82,29.71,10.0,SW,10.4,20.7,N/A,,Overcast,220,2012-10-20 14:13:00
10:30 AM,48.2,42.8,82,29.71,10.0,SW,11.5,-,N/A,,Overcast,220,2012-10-20 14:30:00
10:53 AM,50.0,42.1,74,29.71,10.0,SW,12.7,21.9,N/A,,Overcast,220,2012-10-20 14:53:00
11:04 AM,50.0,42.8,76,29.71,10.0,SW,17.3,23.0,N/A,,Mostly Cloudy,220,2012-10-20 15:04:00
11:33 AM,50.0,39.2,66,29.72,10.0,SW,11.5,25.3,N/A,,Mostly Cloudy,230,2012-10-20 15:33:00
11:53 AM,50.0,41.0,71,29.73,10.0,SW,13.8,21.9,N/A,,Overcast,220,2012-10-20 15:53:00
12:53 PM,48.9,41.0,74,29.74,8.0,West,13.8,27.6,0.00,Rain,Light Rain,260,2012-10-20 16:53:00
1:01 PM,50.0,42.8,76,29.73,10.0,WSW,11.5,-,0.00,,Overcast,250,2012-10-20 17:01:00
1:53 PM,52.0,39.9,63,29.73,10.0,WSW,17.3,26.5,0.01,,Overcast,240,2012-10-20 17:53:00
2:43 PM,48.2,42.8,82,29.74,2.5,West,15.0,-,0.03,Rain,Rain,270,2012-10-20 18:43:00
2:53 PM,48.0,43.0,83,29.75,3.0,West,9.2,-,0.05,Rain,Light Rain,280,2012-10-20 18:53:00
3:15 PM,48.2,44.6,87,29.74,10.0,West,13.8,-,0.01,Rain,Light Rain,260,2012-10-20 19:15:00
3:53 PM,48.0,43.0,83,29.76,10.0,WSW,13.8,-,0.02,,Mostly Cloudy,250,2012-10-20 19:53:00
4:53 PM,50.0,44.1,80,29.78,10.0,West,13.8,-,N/A,,Overcast,260,2012-10-20 20:53:00
5:53 PM,50.0,42.1,74,29.80,10.0,WSW,12.7,-,N/A,,Overcast,240,2012-10-20 21:53:00
6:53 PM,48.9,42.1,77,29.82,10.0,SW,8.1,-,N/A,,Overcast,230,2012-10-20 22:53:00
7:53 PM,48.9,42.1,77,29.83,9.0,SW,9.2,-,0.00,Rain,Light Rain,230,2012-10-20 23:53:00
8:36 PM,48.2,42.8,82,29.84,10.0,WSW,11.5,-,0.01,,Overcast,240,2012-10-21 00:36:00
8:53 PM,48.9,43.0,80,29.85,10.0,SW,9.2,-,0.01,,Overcast,230,2012-10-21 00:53:00
9:21 PM,48.2,42.8,82,29.85,10.0,WSW,8.1,-,N/A,,Overcast,240,2012-10-21 01:21:00
9:53 PM,48.9,43.0,80,29.86,10.0,WSW,10.4,-,N/A,,Overcast,240,2012-10-21 01:53:00
10:53 PM,48.9,43.0,80,29.88,10.0,WSW,9.2,-,0.00,Rain,Light Rain,250,2012-10-21 02:53:00
11:53 PM,48.9,44.1,83,29.91,10.0,West,5.8,-,0.02,Rain,Light Rain,270,2012-10-21 03:53:00